Location: São Paulo
(23.5507°S, 46.6334°W)
Time: 08:01:24
(UTC-03:00)

ARIANE 6 FM1 Upper Stage - Visible Passes

Search period start: 21 January 2026 00:00
Search period end: 31 January 2026 00:00
Orbit: 522 x 610 km, 62.0° (Epoch: 20 January)

Date Brightness Start Highest point End Pass type
(mag) Time Alt. Az. Time Alt. Az. Time Alt. Az.
25 Jan 5.4 04:02:59 10° NE 04:04:47 12° ENE 04:06:36 10° E visible
26 Jan 4.9 04:01:54 11° NNE 04:04:46 21° ENE 04:07:59 10° ESE visible
27 Jan 4.1 04:02:46 22° NNE 04:04:46 34° ENE 04:08:41 10° SE visible
28 Jan 3.1 04:03:33 40° N 04:04:47 57° ENE 04:09:04 10° SE visible
29 Jan 2.6 04:04:15 65° NW 04:04:51 84° WSW 04:09:13 10° SSE visible
30 Jan 3.0 04:04:51 49° WSW 04:04:56 49° WSW 04:09:11 10° SSE visible
